SCP
0 0 0 0 0 0 0 0 0 0 0 0 0 0 0 0 0 0 0 0 0 0 0 0 0 0 0 0 0 0 0 0 0 0 0 0 0 0 0 0 0 0 0
0 0 0 0 0 0 0 0 0 0 0 0 0 0 0 0 0 0 0 0 0 0 0 0 0 0 0 0 0 0 0 1 1 1 1 0 0 0 0 0 0 0 0
0 0 0 0 0 0 0 0 0 0 0 0 0 0 0 0 0 0 0 0 0 0 0 0 0 0 0 0 1 1 1 1 1 1 1 1 0 0 1 1 1 0 0
0 0 0 0 0 0 0 0 0 0 0 0 0 0 0 0 0 0 0 0 0 0 0 0 0 0 1 1 1 1 1 1 1 1 1 1 1 1 1 1 1 1 1
0 0 0 0 0 0 0 0 0 0 0 0 0 0 0 0 0 0 0 0 0 0 0 0 0 0 1 1 1 1 1 1 1 1 1 1 1 1 1 1 1 1 1
0 0 0 0 0 0 0 0 0 0 0 0 0 0 0 0 0 0 0 0 0 0 0 0 1 0 1 1 1 1 1 1 1 1 1 1 1 1 1 1 0 1 1
0 0 0 0 0 0 0 0 0 0 0 0 0 0 0 0 0 0 0 0 0 0 0 0 0 0 0 0 0 0 0 1 1 1 1 1 1 1 1 1 1 0 1
0 -0 0 0 0 0 0 0 0 0 0 0 0 0 0 0 0 0 0 0 0 -0 -0 0 0 0 0 0 0 0 0 0 1 1 1 1 1 1 1 1 1 0 0
-0 0 0 0 0 0 -0 0 0 0 0 0 0 0 0 0 0 0 0 0 0 -0 -0 -0 0 0 0 0 0 0 0 0 0 0 1 1 1 1 1 1 1 0 0
-0 -0 0 0 0 0 0 0 0 0 0 0 0 0 0 0 0 0 0 0 -0 -0 0 0 -0 -0 0 0 -0 0 0 0 0 0 0 1 1 1 1 1 1 0 0
0 -0 0 0 0 0 0 0 0 0 0 0 0 0 0 0 0 0 0 0 0 0 0 -0 0 0 -0 0 -0 -0 0 0 0 0 0 0 1 1 1 1 1 1 0
-0 0 0 0 0 0 0 0 0 0 0 0 0 0 0 0 0 0 0 0 0 0 0 0 0 0 0 0 -0 0 0 0 0 0 0 0 0 1 1 1 1 1 0
0 0 0 0 0 0 0 0 0 0 0 0 0 0 0 0 0 0 0 0 0 0 0 0 0 0 0 0 0 0 0 0 0 0 0 0 0 0 1 1 1 0 0
0 0 0 0 0 0 0 0 0 0 0 0 0 0 0 0 0 0 1 1 0 0 0 0 0 0 0 0 0 0 0 0 0 0 0 0 0 0 0 0 0 0 0
0 0 0 0 0 0 -0 0 0 0 0 0 0 0 0 0 0 0 1 1 1 0 0 0 0 0 0 0 0 0 0 0 0 0 0 0 0 0 0 0 0 0 0
0 0 0 0 -0 -0 0 0 0 0 0 0 0 0 0 0 0 0 0 0 0 0 0 0 0 0 0 0 0 0 -0 0 -0 0 0 0 0 0 0 0 0 0 0
0 0 0 0 0 -0 0 0 0 0 0 0 0 0 0 0 0 0 0 0 0 0 0 0 0 0 0 0 0 -0 -0 -0 -0 0 0 0 0 0 0 0 0 0 0
0 0 0 0 0 0 0 0 0 0 0 0 0 0 0 0 0 0 0 0 0 0 0 0 0 0 0 0 0 -0 -0 -0 0 0 0 0 0 0 0 0 0 0 0
0 0 0 0 0 0 0 0 0 0 0 0 0 0 0 0 0 0 0 0 0 0 0 0 0 0 0 0 0 -0 -0 -0 0 0 0 0 0 0 0 0 -0 0 0
0 0 0 0 0 0 0 0 0 0 0 0 0 0 0 0 0 0 0 0 0 0 0 0 0 0 0 0 0 -0 -0 -0 0 -0 0 0 0 -0 -0 -0 -0 -0 0
1 0 0 0 0 0 0 0 0 0 0 0 0 0 0 0 0 0 0 0 0 0 0 0 0 0 0 0 0 0 -0 -0 -0 0 0 -0 0 0 0 -0 0 0 0
1 1 1 1 1 1 0 0 0 0 0 0 0 0 0 0 0 0 0 0 0 0 0 0 -0 0 0 0 0 0 -0 -0 -0 0 -0 -0 0 0 0 -0 0 0 0
0 0 0 1 0 0 0 0 0 0 0 0 0 0 0 0 0 0 0 0 0 0 0 0 0 0 0 0 0 0 -0 -0 -0 -0 -0 -0 -0 0 -0 -0 0 0 0
0 0 0 0 0 0 0 0 0 0 0 1 1 1 1 1 0 0 0 0 0 0 0 0 0 0 0 0 1 0 0 0 0 0 0 -0 -0 -0 -0 -0 0 0 0
0 0 0 0 0 0 0 0 0 0 1 1 0 0 0 0 0 0 0 1 0 0 0 0 0 0 0 0 0 0 0 0 0 0 0 -0 -0 -0 -0 -0 -0 0 0
0 0 0 0 0 0 0 0 0 0 0 0 0 0 0 0 0 0 0 0 0 1 0 0 0 0 0 0 0 0 1 0 0 -0 -0 0 -0 -0 -0 -0 0 0 0
Wind_Speed_500mb
23 21 20 16 14 15 15 15 16 15 18 16 17 17 19 18 19 17 12 20 21 23 24 26 27 28 28 27 27 26 24 24 25 24 22 20 18 16 15 14 13 10 9
18 14 14 14 13 13 12 13 15 15 16 13 14 15 17 18 19 20 16 21 27 27 28 30 30 29 28 28 28 27 27 28 27 26 25 24 21 19 16 15 16 14 11
15 14 10 12 11 13 14 14 15 17 15 14 15 14 14 14 13 14 16 15 20 28 29 29 27 28 28 29 28 29 30 30 29 28 27 27 24 21 20 18 15 16 16
16 14 12 11 8 9 11 12 15 16 15 14 12 12 10 12 11 12 12 14 13 12 23 25 25 26 27 28 29 30 31 31 33 33 31 29 28 27 23 21 19 16 16
15 15 12 10 9 8 10 12 12 13 12 9 9 8 8 9 11 9 10 12 11 13 12 18 22 25 26 26 28 29 30 32 35 38 38 34 32 31 29 24 22 19 15
16 13 9 11 11 8 10 10 12 8 9 6 8 7 7 7 8 8 7 10 9 10 10 16 13 15 24 26 27 27 28 31 33 36 39 41 39 36 33 28 22 20 18
12 13 10 10 8 10 12 8 7 8 8 6 6 8 9 11 9 8 7 9 6 9 10 12 15 13 13 26 28 28 29 27 28 32 36 40 43 42 38 32 25 21 19
14 10 18 10 13 10 9 8 11 8 8 10 7 6 10 12 9 6 6 7 9 10 9 9 9 14 14 15 20 26 28 25 26 29 32 36 40 44 42 40 32 25 22
17 16 21 16 14 15 7 8 6 9 7 8 13 5 7 7 6 4 6 5 9 9 8 7 7 8 15 14 19 23 32 28 25 27 31 33 35 39 41 42 39 33 27
18 17 16 21 19 13 12 8 5 7 10 6 7 10 14 9 3 12 5 4 7 7 4 4 5 7 12 13 16 30 35 35 30 26 29 31 32 32 35 37 38 38 33
15 19 19 20 16 12 15 13 8 8 4 7 6 5 8 8 11 2 8 7 6 4 2 2 1 4 8 10 13 20 30 35 34 31 30 31 30 32 31 32 33 34 35
12 17 21 22 18 15 13 11 13 8 8 6 6 8 6 5 9 5 3 3 4 3 2 1 2 3 6 9 12 20 24 31 37 34 29 30 26 26 30 31 31 31 31
16 18 24 22 20 20 14 13 17 13 9 5 8 3 3 4 7 8 5 2 3 3 2 3 3 5 6 9 13 21 24 31 34 34 28 27 27 27 27 32 34 32 29
11 17 21 20 24 22 16 17 12 14 15 7 9 8 2 2 4 6 5 5 6 6 6 5 6 5 7 8 15 22 22 32 35 34 30 27 27 27 29 33 35 35 31
15 14 20 19 22 28 21 18 16 19 20 16 14 13 10 10 6 5 6 5 4 11 7 3 8 10 9 15 22 25 27 38 40 37 33 30 29 31 34 36 35 34 32
19 18 17 18 17 21 23 21 19 22 22 17 17 22 21 17 16 13 11 9 9 11 18 7 13 16 16 19 24 35 32 38 43 41 46 34 32 33 37 39 35 31 31
20 22 20 22 23 23 21 22 23 21 22 22 21 21 22 25 21 21 21 19 18 19 22 25 20 23 29 25 32 38 34 35 34 44 49 39 34 34 36 35 32 29 29
19 16 20 21 22 19 22 26 23 21 19 21 19 21 24 22 26 28 26 26 25 25 27 31 32 32 29 31 31 36 33 32 31 29 44 39 32 29 28 30 30 29 33
23 20 19 17 16 20 18 23 21 20 20 20 18 21 20 21 25 25 28 29 29 30 31 33 38 35 34 35 34 34 35 30 29 32 36 36 37 29 28 29 30 32 37
29 24 23 24 22 18 18 18 20 20 19 21 22 20 20 21 23 24 22 25 26 30 32 35 37 37 36 34 33 33 34 31 33 35 32 30 39 38 40 36 31 32 35
19 23 23 23 23 25 21 26 25 25 25 26 23 22 22 25 30 27 24 25 29 29 29 31 33 32 31 30 29 33 34 34 37 33 35 32 34 34 34 36 34 37 50
23 20 19 22 21 24 33 28 28 25 23 27 27 26 25 32 32 32 35 36 37 37 34 31 32 35 37 34 31 33 34 37 41 32 38 45 39 42 37 33 39 47 41
19 23 17 13 31 36 32 33 34 30 27 26 25 23 21 21 29 28 29 34 38 36 36 39 43 40 42 39 39 40 39 42 45 47 50 49 40 36 36 37 46 45 33
20 18 18 23 22 22 17 18 24 27 25 25 24 26 25 29 40 39 33 29 33 36 38 40 41 46 44 44 43 45 52 55 49 45 43 53 47 47 41 38 45 48 29
34 28 22 30 26 28 24 18 17 12 13 15 30 35 34 37 42 40 40 41 34 35 35 40 41 48 53 54 53 55 51 48 56 53 45 49 51 51 46 45 41 41 46
23 18 24 24 22 27 28 31 28 24 27 10 16 23 27 31 35 39 40 42 45 42 47 49 52 57 55 51 46 42 42 44 49 54 43 46 49 46 52 44 35 36 45
Wind_Direction_500mb
117 117 116 118 105 94 90 73 65 77 78 82 76 78 72 70 74 83 71 76 81 83 84 83 81 78 72 65 55 47 38 31 25 18 12 8 2 351 337 331 334 336 315
123 116 112 110 103 96 83 79 80 85 89 86 76 85 83 73 82 85 89 71 82 85 87 86 83 75 65 56 47 39 34 28 22 15 9 5 1 351 338 320 309 308 309
142 124 134 118 102 92 77 71 73 82 84 81 87 78 75 82 79 85 85 92 68 85 88 85 77 69 61 52 42 35 32 27 21 17 13 9 7 2 360 353 333 304 288
135 114 114 138 123 95 87 94 94 93 90 89 84 84 82 83 90 90 94 97 104 94 76 77 72 65 58 52 46 43 40 37 34 28 24 20 12 8 4 357 350 332 301
134 130 128 152 117 102 111 109 99 95 89 89 73 70 82 99 89 95 95 93 103 101 99 70 72 62 59 53 48 42 38 36 36 34 31 26 21 12 6 3 1 354 341
147 127 149 144 120 108 113 123 112 80 83 71 84 78 98 107 111 104 97 90 103 81 73 81 62 47 54 50 41 32 31 31 31 32 30 30 28 23 16 9 5 359 357
163 155 163 148 141 142 149 105 93 59 59 45 79 98 92 93 91 96 106 113 104 87 100 88 71 71 30 29 32 30 26 25 25 29 28 27 26 27 26 21 14 11 5
191 179 160 158 150 158 137 125 123 103 64 65 98 122 137 120 98 90 106 108 129 115 102 77 79 59 47 38 19 24 21 20 24 27 25 25 24 25 26 27 26 21 14
180 177 181 173 173 150 184 138 116 122 81 52 66 79 176 102 141 90 87 112 123 120 116 77 53 35 44 39 30 15 26 27 21 21 21 20 19 21 22 26 28 26 22
192 196 189 191 176 184 188 184 152 116 103 71 70 61 87 99 78 141 109 139 131 118 146 72 34 29 40 40 21 29 26 22 19 15 14 13 12 10 14 17 21 25 25
200 199 192 183 192 175 204 189 173 146 95 90 106 89 79 62 45 139 117 129 150 150 130 54 9 19 6 22 18 359 14 13 13 11 7 2 3 6 3 5 10 12 19
211 204 199 195 190 185 182 188 198 190 163 125 104 99 83 70 54 59 153 151 176 189 208 348 4 340 343 344 344 353 360 3 1 360 0 358 359 1 5 358 354 359 1
191 235 201 204 200 195 194 197 211 206 186 187 128 94 72 71 58 50 49 100 186 197 210 251 331 329 335 342 323 345 356 352 356 355 350 345 344 345 347 352 347 341 345
211 216 205 206 204 204 208 214 215 204 224 211 217 199 258 321 22 23 41 18 222 212 254 237 300 336 347 330 331 353 337 338 343 346 343 332 331 335 339 342 339 336 331
226 215 203 209 211 212 216 226 213 225 220 230 243 244 238 262 287 303 333 350 312 302 249 266 286 308 330 327 314 334 331 323 331 335 336 327 323 326 331 334 337 334 328
232 219 205 206 217 219 225 233 229 233 233 234 243 251 245 247 256 268 275 291 301 284 284 275 279 293 296 306 311 314 320 332 321 320 322 312 315 321 325 327 334 337 333
250 228 228 226 222 229 233 229 223 225 242 240 242 252 259 251 250 254 262 269 273 280 280 276 286 293 301 305 308 315 323 322 316 309 312 323 315 313 316 321 329 336 338
250 233 239 233 235 231 237 242 242 238 241 239 249 255 260 253 261 253 255 263 262 264 274 278 280 287 294 299 309 318 317 316 306 313 317 330 327 320 319 319 321 325 330
248 243 244 236 239 250 255 239 237 237 231 232 241 248 254 254 259 254 254 256 269 278 277 280 279 281 284 296 300 315 313 319 328 312 321 324 322 321 316 318 317 318 324
242 242 247 247 244 248 239 230 240 241 235 239 246 251 251 252 253 261 260 260 271 276 275 278 281 280 283 289 297 309 310 308 311 313 314 318 322 326 324 320 314 309 314
226 232 231 229 230 234 244 247 252 254 253 250 243 248 256 253 255 260 257 263 258 272 281 275 276 279 283 289 291 299 303 305 306 310 310 308 313 309 309 311 312 306 307
222 225 231 219 218 214 233 240 243 251 252 257 256 259 256 261 269 264 268 269 269 270 268 267 272 279 282 288 297 293 294 300 304 309 305 304 309 306 306 309 293 293 300
234 233 219 204 224 230 237 236 240 247 249 252 252 256 260 269 267 262 267 266 262 264 271 277 275 275 279 282 285 290 293 290 293 295 301 301 307 306 306 305 298 305 303
226 222 234 244 243 247 251 249 244 240 250 252 254 256 259 252 253 259 260 262 268 273 280 278 275 282 287 291 286 290 291 294 299 302 300 296 304 302 306 303 303 305 300
239 231 226 243 246 252 250 246 259 252 245 254 254 259 262 267 272 271 272 272 272 272 273 281 281 281 280 279 280 283 283 286 288 291 292 290 295 298 300 303 305 302 303
211 209 217 236 245 256 257 255 247 246 259 255 290 277 273 274 277 279 275 274 275 274 275 275 273 280 287 291 295 292 288 280 283 289 293 290 291 291 291 297 298 292 298
Wind_Speed_850mb
23 21 20 16 14 15 15 15 16 15 18 16 17 17 19 18 19 17 12 20 21 23 24 26 27 28 28 27 27 26 24 24 25 24 22 20 18 16 15 14 13 10 9
18 14 14 14 13 13 12 13 15 15 16 13 14 15 17 18 19 20 16 21 27 27 28 30 30 29 28 28 28 27 27 28 27 26 25 24 21 19 16 15 16 14 11
15 14 10 12 11 13 14 14 15 17 15 14 15 14 14 14 13 14 16 15 20 28 29 29 27 28 28 29 28 29 30 30 29 28 27 27 24 21 20 18 15 16 16
16 14 12 11 8 9 11 12 15 16 15 14 12 12 10 12 11 12 12 14 13 12 23 25 25 26 27 28 29 30 31 31 33 33 31 29 28 27 23 21 19 16 16
15 15 12 10 9 8 10 12 12 13 12 9 9 8 8 9 11 9 10 12 11 13 12 18 22 25 26 26 28 29 30 32 35 38 38 34 32 31 29 24 22 19 15
16 13 9 11 11 8 10 10 12 8 9 6 8 7 7 7 8 8 7 10 9 10 10 16 13 15 24 26 27 27 28 31 33 36 39 41 39 36 33 28 22 20 18
12 13 10 10 8 10 12 8 7 8 8 6 6 8 9 11 9 8 7 9 6 9 10 12 15 13 13 26 28 28 29 27 28 32 36 40 43 42 38 32 25 21 19
14 10 18 10 13 10 9 8 11 8 8 10 7 6 10 12 9 6 6 7 9 10 9 9 9 14 14 15 20 26 28 25 26 29 32 36 40 44 42 40 32 25 22
17 16 21 16 14 15 7 8 6 9 7 8 13 5 7 7 6 4 6 5 9 9 8 7 7 8 15 14 19 23 32 28 25 27 31 33 35 39 41 42 39 33 27
18 17 16 21 19 13 12 8 5 7 10 6 7 10 14 9 3 12 5 4 7 7 4 4 5 7 12 13 16 30 35 35 30 26 29 31 32 32 35 37 38 38 33
15 19 19 20 16 12 15 13 8 8 4 7 6 5 8 8 11 2 8 7 6 4 2 2 1 4 8 10 13 20 30 35 34 31 30 31 30 32 31 32 33 34 35
12 17 21 22 18 15 13 11 13 8 8 6 6 8 6 5 9 5 3 3 4 3 2 1 2 3 6 9 12 20 24 31 37 34 29 30 26 26 30 31 31 31 31
16 18 24 22 20 20 14 13 17 13 9 5 8 3 3 4 7 8 5 2 3 3 2 3 3 5 6 9 13 21 24 31 34 34 28 27 27 27 27 32 34 32 29
11 17 21 20 24 22 16 17 12 14 15 7 9 8 2 2 4 6 5 5 6 6 6 5 6 5 7 8 15 22 22 32 35 34 30 27 27 27 29 33 35 35 31
15 14 20 19 22 28 21 18 16 19 20 16 14 13 10 10 6 5 6 5 4 11 7 3 8 10 9 15 22 25 27 38 40 37 33 30 29 31 34 36 35 34 32
19 18 17 18 17 21 23 21 19 22 22 17 17 22 21 17 16 13 11 9 9 11 18 7 13 16 16 19 24 35 32 38 43 41 46 34 32 33 37 39 35 31 31
20 22 20 22 23 23 21 22 23 21 22 22 21 21 22 25 21 21 21 19 18 19 22 25 20 23 29 25 32 38 34 35 34 44 49 39 34 34 36 35 32 29 29
19 16 20 21 22 19 22 26 23 21 19 21 19 21 24 22 26 28 26 26 25 25 27 31 32 32 29 31 31 36 33 32 31 29 44 39 32 29 28 30 30 29 33
23 20 19 17 16 20 18 23 21 20 20 20 18 21 20 21 25 25 28 29 29 30 31 33 38 35 34 35 34 34 35 30 29 32 36 36 37 29 28 29 30 32 37
29 24 23 24 22 18 18 18 20 20 19 21 22 20 20 21 23 24 22 25 26 30 32 35 37 37 36 34 33 33 34 31 33 35 32 30 39 38 40 36 31 32 35
19 23 23 23 23 25 21 26 25 25 25 26 23 22 22 25 30 27 24 25 29 29 29 31 33 32 31 30 29 33 34 34 37 33 35 32 34 34 34 36 34 37 50
23 20 19 22 21 24 33 28 28 25 23 27 27 26 25 32 32 32 35 36 37 37 34 31 32 35 37 34 31 33 34 37 41 32 38 45 39 42 37 33 39 47 41
19 23 17 13 31 36 32 33 34 30 27 26 25 23 21 21 29 28 29 34 38 36 36 39 43 40 42 39 39 40 39 42 45 47 50 49 40 36 36 37 46 45 33
20 18 18 23 22 22 17 18 24 27 25 25 24 26 25 29 40 39 33 29 33 36 38 40 41 46 44 44 43 45 52 55 49 45 43 53 47 47 41 38 45 48 29
34 28 22 30 26 28 24 18 17 12 13 15 30 35 34 37 42 40 40 41 34 35 35 40 41 48 53 54 53 55 51 48 56 53 45 49 51 51 46 45 41 41 46
23 18 24 24 22 27 28 31 28 24 27 10 16 23 27 31 35 39 40 42 45 42 47 49 52 57 55 51 46 42 42 44 49 54 43 46 49 46 52 44 35 36 45
Wind_Direction_850mb
117 117 116 118 105 94 90 73 65 77 78 82 76 78 72 70 74 83 71 76 81 83 84 83 81 78 72 65 55 47 38 31 25 18 12 8 2 351 337 331 334 336 315
123 116 112 110 103 96 83 79 80 85 89 86 76 85 83 73 82 85 89 71 82 85 87 86 83 75 65 56 47 39 34 28 22 15 9 5 1 351 338 320 309 308 309
142 124 134 118 102 92 77 71 73 82 84 81 87 78 75 82 79 85 85 92 68 85 88 85 77 69 61 52 42 35 32 27 21 17 13 9 7 2 360 353 333 304 288
135 114 114 138 123 95 87 94 94 93 90 89 84 84 82 83 90 90 94 97 104 94 76 77 72 65 58 52 46 43 40 37 34 28 24 20 12 8 4 357 350 332 301
134 130 128 152 117 102 111 109 99 95 89 89 73 70 82 99 89 95 95 93 103 101 99 70 72 62 59 53 48 42 38 36 36 34 31 26 21 12 6 3 1 354 341
147 127 149 144 120 108 113 123 112 80 83 71 84 78 98 107 111 104 97 90 103 81 73 81 62 47 54 50 41 32 31 31 31 32 30 30 28 23 16 9 5 359 357
163 155 163 148 141 142 149 105 93 59 59 45 79 98 92 93 91 96 106 113 104 87 100 88 71 71 30 29 32 30 26 25 25 29 28 27 26 27 26 21 14 11 5
191 179 160 158 150 158 137 125 123 103 64 65 98 122 137 120 98 90 106 108 129 115 102 77 79 59 47 38 19 24 21 20 24 27 25 25 24 25 26 27 26 21 14
180 177 181 173 173 150 184 138 116 122 81 52 66 79 176 102 141 90 87 112 123 120 116 77 53 35 44 39 30 15 26 27 21 21 21 20 19 21 22 26 28 26 22
192 196 189 191 176 184 188 184 152 116 103 71 70 61 87 99 78 141 109 139 131 118 146 72 34 29 40 40 21 29 26 22 19 15 14 13 12 10 14 17 21 25 25
200 199 192 183 192 175 204 189 173 146 95 90 106 89 79 62 45 139 117 129 150 150 130 54 9 19 6 22 18 359 14 13 13 11 7 2 3 6 3 5 10 12 19
211 204 199 195 190 185 182 188 198 190 163 125 104 99 83 70 54 59 153 151 176 189 208 348 4 340 343 344 344 353 360 3 1 360 0 358 359 1 5 358 354 359 1
191 235 201 204 200 195 194 197 211 206 186 187 128 94 72 71 58 50 49 100 186 197 210 251 331 329 335 342 323 345 356 352 356 355 350 345 344 345 347 352 347 341 345
211 216 205 206 204 204 208 214 215 204 224 211 217 199 258 321 22 23 41 18 222 212 254 237 300 336 347 330 331 353 337 338 343 346 343 332 331 335 339 342 339 336 331
226 215 203 209 211 212 216 226 213 225 220 230 243 244 238 262 287 303 333 350 312 302 249 266 286 308 330 327 314 334 331 323 331 335 336 327 323 326 331 334 337 334 328
232 219 205 206 217 219 225 233 229 233 233 234 243 251 245 247 256 268 275 291 301 284 284 275 279 293 296 306 311 314 320 332 321 320 322 312 315 321 325 327 334 337 333
250 228 228 226 222 229 233 229 223 225 242 240 242 252 259 251 250 254 262 269 273 280 280 276 286 293 301 305 308 315 323 322 316 309 312 323 315 313 316 321 329 336 338
250 233 239 233 235 231 237 242 242 238 241 239 249 255 260 253 261 253 255 263 262 264 274 278 280 287 294 299 309 318 317 316 306 313 317 330 327 320 319 319 321 325 330
248 243 244 236 239 250 255 239 237 237 231 232 241 248 254 254 259 254 254 256 269 278 277 280 279 281 284 296 300 315 313 319 328 312 321 324 322 321 316 318 317 318 324
242 242 247 247 244 248 239 230 240 241 235 239 246 251 251 252 253 261 260 260 271 276 275 278 281 280 283 289 297 309 310 308 311 313 314 318 322 326 324 320 314 309 314
226 232 231 229 230 234 244 247 252 254 253 250 243 248 256 253 255 260 257 263 258 272 281 275 276 279 283 289 291 299 303 305 306 310 310 308 313 309 309 311 312 306 307
222 225 231 219 218 214 233 240 243 251 252 257 256 259 256 261 269 264 268 269 269 270 268 267 272 279 282 288 297 293 294 300 304 309 305 304 309 306 306 309 293 293 300
234 233 219 204 224 230 237 236 240 247 249 252 252 256 260 269 267 262 267 266 262 264 271 277 275 275 279 282 285 290 293 290 293 295 301 301 307 306 306 305 298 305 303
226 222 234 244 243 247 251 249 244 240 250 252 254 256 259 252 253 259 260 262 268 273 280 278 275 282 287 291 286 290 291 294 299 302 300 296 304 302 306 303 303 305 300
239 231 226 243 246 252 250 246 259 252 245 254 254 259 262 267 272 271 272 272 272 272 273 281 281 281 280 279 280 283 283 286 288 291 292 290 295 298 300 303 305 302 303
211 209 217 236 245 256 257 255 247 246 259 255 290 277 273 274 277 279 275 274 275 274 275 275 273 280 287 291 295 292 288 280 283 289 293 290 291 291 291 297 298 292 298